LNLOL ESOE-ENRK

Flight info

Callsign LNLOL
Flight time 1h 7m
Altitude 8000
Route DEPEX DCT DIDAX
Aircraft C208/L-SDFGRY/C

Departure

Time 2026-05-07 14:18
Airport Örebro Airport (ESOE)

Arrival

Time 2026-05-07 15:25
Airport Rakkestad Astorp Airfield (ENRK)
Time Latitude Longitude Altitude Speed Heading
2026-05-07 13:41 59.22866 15.04734 183 ft 0 kts 191°
2026-05-07 14:04 59.22861 15.04732 183 ft 3 kts 191°
2026-05-07 14:04 59.22873 15.04647 183 ft 11 kts 280°
2026-05-07 14:04 59.22877 15.04587 183 ft 0 kts 280°
2026-05-07 14:14 59.22880 15.04557 183 ft 8 kts 281°
2026-05-07 14:14 59.22805 15.04452 183 ft 21 kts 211°
2026-05-07 14:14 59.22661 15.04383 183 ft 15 kts 190°
2026-05-07 14:14 59.22512 15.04320 183 ft 23 kts 192°
2026-05-07 14:15 59.22476 15.04102 183 ft 24 kts 281°
2026-05-07 14:15 59.22487 15.03874 185 ft 16 kts 225°
2026-05-07 14:15 59.22341 15.03796 186 ft 28 kts 191°
2026-05-07 14:15 59.22116 15.03686 184 ft 38 kts 193°
2026-05-07 14:16 59.21832 15.03566 182 ft 45 kts 188°
2026-05-07 14:16 59.21510 15.03449 188 ft 50 kts 189°
2026-05-07 14:16 59.21158 15.03300 183 ft 48 kts 190°
2026-05-07 14:16 59.20891 15.03210 185 ft 25 kts 188°
2026-05-07 14:17 59.20789 15.03191 184 ft 13 kts 202°
2026-05-07 14:17 59.20807 15.03164 192 ft 0 kts 13°
2026-05-07 14:17 59.20808 15.03165 192 ft 2 kts 12°
2026-05-07 14:17 59.20916 15.03204 184 ft 36 kts 13°
2026-05-07 14:18 59.21327 15.03365 252 ft 76 kts 10°
2026-05-07 14:18 59.21879 15.03603 484 ft 88 kts 13°
2026-05-07 14:18 59.22491 15.03948 766 ft 100 kts 18°
2026-05-07 14:18 59.23186 15.04504 1037 ft 115 kts 24°
2026-05-07 14:19 59.23896 15.05292 1302 ft 125 kts 29°
2026-05-07 14:19 59.24550 15.06537 1484 ft 142 kts 68°
2026-05-07 14:19 59.24361 15.08384 1694 ft 147 kts 129°
2026-05-07 14:19 59.23701 15.09929 1861 ft 150 kts 132°
2026-05-07 14:20 59.22999 15.11418 2037 ft 150 kts 150°
2026-05-07 14:20 59.21991 15.11821 2227 ft 152 kts 179°
2026-05-07 14:20 59.20929 15.12015 2380 ft 154 kts 178°
2026-05-07 14:20 59.19864 15.12231 2534 ft 153 kts 178°
2026-05-07 14:21 59.18821 15.12453 2682 ft 153 kts 177°
2026-05-07 14:21 59.17770 15.12559 2837 ft 151 kts 195°
2026-05-07 14:21 59.16996 15.11330 3005 ft 146 kts 241°
2026-05-07 14:21 59.16759 15.09505 3185 ft 141 kts 287°
2026-05-07 14:22 59.17443 15.08210 3372 ft 144 kts 336°
2026-05-07 14:22 59.18283 15.07165 3514 ft 144 kts 320°
2026-05-07 14:22 59.19006 15.05855 3645 ft 142 kts 305°
2026-05-07 14:22 59.19297 15.04046 3769 ft 143 kts 272°
2026-05-07 14:23 59.19064 15.02135 3909 ft 146 kts 258°
2026-05-07 14:23 59.19020 15.00227 4092 ft 142 kts 280°
2026-05-07 14:23 59.19363 14.98482 4368 ft 136 kts 298°
2026-05-07 14:23 59.19631 14.96743 4611 ft 133 kts 282°
2026-05-07 14:24 59.19788 14.94973 4870 ft 131 kts 281°
2026-05-07 14:24 59.19936 14.93216 5119 ft 131 kts 281°
2026-05-07 14:24 59.20073 14.91467 5372 ft 131 kts 279°
2026-05-07 14:24 59.20201 14.89698 5627 ft 133 kts 281°
2026-05-07 14:25 59.20340 14.87904 5879 ft 134 kts 281°
2026-05-07 14:25 59.20455 14.86103 6151 ft 133 kts 283°
2026-05-07 14:25 59.20582 14.84294 6418 ft 135 kts 279°
2026-05-07 14:25 59.20741 14.82518 6657 ft 135 kts 282°
2026-05-07 14:26 59.20893 14.80718 6916 ft 134 kts 282°
2026-05-07 14:26 59.21044 14.78923 7164 ft 134 kts 280°
2026-05-07 14:26 59.21179 14.77136 7417 ft 133 kts 280°
2026-05-07 14:26 59.21313 14.75356 7670 ft 133 kts 281°
2026-05-07 14:27 59.21449 14.73574 7922 ft 133 kts 279°
2026-05-07 14:27 59.21586 14.71754 8035 ft 141 kts 280°
2026-05-07 14:27 59.21744 14.69783 8042 ft 151 kts 280°
2026-05-07 14:27 59.21909 14.67729 8043 ft 155 kts 281°
2026-05-07 14:28 59.22069 14.65648 8044 ft 157 kts 280°
2026-05-07 14:28 59.22225 14.63566 8042 ft 157 kts 280°
2026-05-07 14:28 59.22384 14.61440 8038 ft 159 kts 280°
2026-05-07 14:28 59.22543 14.59283 8028 ft 161 kts 281°
2026-05-07 14:29 59.22706 14.57133 8030 ft 159 kts 280°
2026-05-07 14:29 59.22865 14.54997 8028 ft 159 kts 280°
2026-05-07 14:29 59.22903 14.54479 8022 ft 159 kts 280°
2026-05-07 14:29 59.23006 14.53102 8024 ft 160 kts 280°
2026-05-07 14:30 59.23167 14.50947 8039 ft 161 kts 280°
2026-05-07 14:30 59.23324 14.48800 8043 ft 162 kts 280°
2026-05-07 14:30 59.23484 14.46621 8040 ft 162 kts 280°
2026-05-07 14:30 59.23646 14.44432 8039 ft 163 kts 280°
2026-05-07 14:31 59.23806 14.42244 8040 ft 164 kts 280°
2026-05-07 14:31 59.23968 14.40042 8034 ft 164 kts 280°
2026-05-07 14:31 59.24130 14.37833 8035 ft 164 kts 280°
2026-05-07 14:31 59.24288 14.35636 8036 ft 164 kts 280°
2026-05-07 14:32 59.24446 14.33466 8037 ft 164 kts 280°
2026-05-07 14:32 59.24607 14.31261 8034 ft 164 kts 280°
2026-05-07 14:32 59.24767 14.29053 8037 ft 163 kts 280°
2026-05-07 14:32 59.24928 14.26873 8042 ft 162 kts 281°
2026-05-07 14:33 59.25085 14.24693 8040 ft 162 kts 281°
2026-05-07 14:33 59.25236 14.22520 8035 ft 162 kts 281°
2026-05-07 14:33 59.25391 14.20347 8044 ft 162 kts 281°
2026-05-07 14:33 59.25549 14.18167 8043 ft 162 kts 281°
2026-05-07 14:34 59.25705 14.15993 8040 ft 162 kts 281°
2026-05-07 14:34 59.25858 14.13846 8042 ft 162 kts 281°
2026-05-07 14:34 59.26011 14.11666 8035 ft 162 kts 281°
2026-05-07 14:34 59.26166 14.09489 8044 ft 161 kts 281°
2026-05-07 14:35 59.26320 14.07315 8045 ft 162 kts 281°
2026-05-07 14:35 59.26474 14.05130 8037 ft 162 kts 281°
2026-05-07 14:35 59.26627 14.02947 8043 ft 162 kts 281°
2026-05-07 14:35 59.26780 14.00764 8046 ft 162 kts 281°
2026-05-07 14:36 59.26932 13.98589 8041 ft 162 kts 281°
2026-05-07 14:36 59.27082 13.96439 8046 ft 162 kts 281°
2026-05-07 14:36 59.27234 13.94260 8047 ft 162 kts 281°
2026-05-07 14:36 59.27385 13.92081 8046 ft 162 kts 281°
2026-05-07 14:37 59.27536 13.89903 8042 ft 162 kts 281°
2026-05-07 14:37 59.27837 13.85543 8041 ft 162 kts 281°
2026-05-07 14:37 59.27987 13.83368 8041 ft 161 kts 281°
2026-05-07 14:38 59.28136 13.81193 8042 ft 161 kts 281°
2026-05-07 14:38 59.28283 13.79043 8043 ft 162 kts 281°
2026-05-07 14:38 59.28432 13.76866 8038 ft 161 kts 280°
2026-05-07 14:38 59.28580 13.74690 8042 ft 161 kts 281°
2026-05-07 14:39 59.28727 13.72516 8041 ft 161 kts 280°
2026-05-07 14:39 59.28874 13.70342 8040 ft 162 kts 280°
2026-05-07 14:39 59.29022 13.68164 8035 ft 161 kts 280°
2026-05-07 14:39 59.29168 13.65985 8039 ft 161 kts 280°
2026-05-07 14:40 59.29314 13.63810 8039 ft 161 kts 280°
2026-05-07 14:40 59.29459 13.61634 8038 ft 161 kts 279°
2026-05-07 14:40 59.29603 13.59488 8037 ft 161 kts 279°
2026-05-07 14:40 59.29749 13.57307 8038 ft 162 kts 279°
2026-05-07 14:41 59.29894 13.55125 8041 ft 162 kts 279°
2026-05-07 14:41 59.30041 13.52932 8037 ft 162 kts 279°
2026-05-07 14:41 59.30186 13.50738 8025 ft 162 kts 279°
2026-05-07 14:41 59.30331 13.48544 8031 ft 163 kts 279°
2026-05-07 14:42 59.30474 13.46353 8030 ft 162 kts 279°
2026-05-07 14:42 59.30618 13.44166 8027 ft 162 kts 279°
2026-05-07 14:42 59.30761 13.41978 8036 ft 162 kts 279°
2026-05-07 14:42 59.30903 13.39794 8034 ft 162 kts 279°
2026-05-07 14:43 59.31044 13.37637 8035 ft 162 kts 279°
2026-05-07 14:43 59.31186 13.35451 8035 ft 162 kts 279°
2026-05-07 14:43 59.31328 13.33263 8036 ft 162 kts 279°
2026-05-07 14:43 59.31469 13.31070 8027 ft 162 kts 279°
2026-05-07 14:44 59.31609 13.28889 8036 ft 162 kts 279°
2026-05-07 14:44 59.31750 13.26690 8035 ft 163 kts 279°
2026-05-07 14:44 59.31892 13.24497 8033 ft 163 kts 279°
2026-05-07 14:44 59.32032 13.22300 8026 ft 163 kts 279°
2026-05-07 14:45 59.32170 13.20130 8034 ft 163 kts 279°
2026-05-07 14:45 59.32311 13.17927 8034 ft 163 kts 279°
2026-05-07 14:45 59.32450 13.15733 8036 ft 163 kts 279°
2026-05-07 14:45 59.32589 13.13531 8036 ft 163 kts 279°
2026-05-07 14:46 59.32727 13.11332 8040 ft 163 kts 279°
2026-05-07 14:46 59.32866 13.09129 8033 ft 163 kts 279°
2026-05-07 14:46 59.33005 13.06922 8041 ft 163 kts 279°
2026-05-07 14:46 59.33142 13.04725 8040 ft 163 kts 279°
2026-05-07 14:47 59.33277 13.02552 8042 ft 163 kts 279°
2026-05-07 14:47 59.33413 13.00353 8040 ft 163 kts 279°
2026-05-07 14:47 59.33550 12.98151 8037 ft 163 kts 279°
2026-05-07 14:47 59.33685 12.95954 8035 ft 163 kts 279°
2026-05-07 14:48 59.33821 12.93749 8040 ft 163 kts 279°
2026-05-07 14:48 59.33958 12.91542 8040 ft 163 kts 279°
2026-05-07 14:48 59.34094 12.89337 8042 ft 163 kts 279°
2026-05-07 14:48 59.34228 12.87119 8039 ft 164 kts 279°
2026-05-07 14:49 59.34361 12.84950 8032 ft 163 kts 279°
2026-05-07 14:49 59.34495 12.82735 8040 ft 163 kts 279°
2026-05-07 14:49 59.34629 12.80524 8038 ft 164 kts 279°
2026-05-07 14:49 59.34763 12.78307 8039 ft 163 kts 279°
2026-05-07 14:50 59.34896 12.76098 8038 ft 163 kts 278°
2026-05-07 14:50 59.35029 12.73889 8040 ft 163 kts 279°
2026-05-07 14:50 59.35161 12.71679 8043 ft 163 kts 278°
2026-05-07 14:50 59.35293 12.69480 8040 ft 163 kts 278°
2026-05-07 14:51 59.35423 12.67285 8043 ft 162 kts 278°
2026-05-07 14:51 59.35551 12.65118 8042 ft 162 kts 279°
2026-05-07 14:51 59.35681 12.62929 8040 ft 162 kts 279°
2026-05-07 14:51 59.35810 12.60735 8040 ft 162 kts 279°
2026-05-07 14:52 59.35940 12.58538 8038 ft 162 kts 278°
2026-05-07 14:52 59.36068 12.56344 8038 ft 163 kts 278°
2026-05-07 14:52 59.36199 12.54136 8038 ft 163 kts 278°
2026-05-07 14:52 59.36327 12.51931 8039 ft 163 kts 278°
2026-05-07 14:53 59.36454 12.49753 8040 ft 163 kts 278°
2026-05-07 14:53 59.36583 12.47543 8039 ft 164 kts 278°
2026-05-07 14:53 59.36711 12.45326 8042 ft 163 kts 278°
2026-05-07 14:53 59.36839 12.43108 8038 ft 164 kts 278°
2026-05-07 14:54 59.36966 12.40892 8039 ft 163 kts 278°
2026-05-07 14:54 59.37092 12.38675 8037 ft 164 kts 278°
2026-05-07 14:54 59.37219 12.36465 8038 ft 163 kts 278°
2026-05-07 14:54 59.37345 12.34255 8039 ft 163 kts 278°
2026-05-07 14:55 59.37468 12.32073 8040 ft 163 kts 278°
2026-05-07 14:55 59.37595 12.29860 8043 ft 163 kts 278°
2026-05-07 14:55 59.37719 12.27653 8040 ft 163 kts 278°
2026-05-07 14:55 59.37844 12.25449 8040 ft 163 kts 278°
2026-05-07 14:56 59.37967 12.23246 8043 ft 163 kts 278°
2026-05-07 14:56 59.38092 12.21032 8035 ft 163 kts 278°
2026-05-07 14:56 59.38214 12.18822 8040 ft 163 kts 278°
2026-05-07 14:56 59.38337 12.16616 8032 ft 163 kts 278°
2026-05-07 14:57 59.38459 12.14405 8040 ft 163 kts 278°
2026-05-07 14:57 59.38580 12.12213 8033 ft 164 kts 278°
2026-05-07 14:57 59.38703 12.09991 8040 ft 164 kts 278°
2026-05-07 14:57 59.38826 12.07769 8035 ft 164 kts 278°
2026-05-07 14:58 59.38947 12.05555 8042 ft 163 kts 278°
2026-05-07 14:58 59.39067 12.03338 8039 ft 163 kts 278°
2026-05-07 14:58 59.39188 12.01122 8038 ft 163 kts 278°
2026-05-07 14:58 59.39308 11.98907 8039 ft 163 kts 278°
2026-05-07 14:59 59.39427 11.96694 8043 ft 163 kts 278°
2026-05-07 14:59 59.39547 11.94474 8041 ft 164 kts 278°
2026-05-07 14:59 59.39664 11.92285 8044 ft 163 kts 278°
2026-05-07 14:59 59.39782 11.90070 8044 ft 163 kts 278°
2026-05-07 15:00 59.39900 11.87858 8045 ft 163 kts 278°
2026-05-07 15:00 59.40017 11.85653 8048 ft 162 kts 278°
2026-05-07 15:00 59.40134 11.83448 8044 ft 162 kts 278°
2026-05-07 15:00 59.40250 11.81250 8048 ft 162 kts 278°
2026-05-07 15:01 59.40365 11.79056 8036 ft 162 kts 278°
2026-05-07 15:01 59.40481 11.76857 8036 ft 162 kts 278°
2026-05-07 15:01 59.40599 11.74653 7902 ft 170 kts 279°
2026-05-07 15:01 59.40829 11.72237 7201 ft 186 kts 285°
2026-05-07 15:02 59.41071 11.69994 6822 ft 152 kts 276°
2026-05-07 15:02 59.40750 11.68202 6485 ft 138 kts 226°
2026-05-07 15:02 59.39898 11.67465 6174 ft 132 kts 201°
2026-05-07 15:02 59.39058 11.66851 5892 ft 127 kts 204°
2026-05-07 15:03 59.38240 11.66253 5617 ft 125 kts 204°
2026-05-07 15:03 59.37416 11.65666 5351 ft 127 kts 204°
2026-05-07 15:03 59.36582 11.65072 5090 ft 128 kts 204°
2026-05-07 15:03 59.35751 11.64475 4828 ft 130 kts 204°
2026-05-07 15:04 59.34894 11.63860 4568 ft 131 kts 204°
2026-05-07 15:04 59.34035 11.63244 4302 ft 131 kts 204°
2026-05-07 15:04 59.33180 11.62637 4041 ft 130 kts 204°
2026-05-07 15:04 59.32326 11.62023 3783 ft 131 kts 204°
2026-05-07 15:05 59.31472 11.61419 3530 ft 131 kts 204°
2026-05-07 15:05 59.30635 11.60721 3276 ft 129 kts 222°
2026-05-07 15:05 59.30049 11.59469 3027 ft 126 kts 233°
2026-05-07 15:05 59.29478 11.58173 2765 ft 125 kts 232°
2026-05-07 15:06 59.28934 11.56840 2502 ft 125 kts 247°
2026-05-07 15:06 59.29064 11.55408 2463 ft 107 kts 314°
2026-05-07 15:06 59.29573 11.54434 2436 ft 97 kts 312°
2026-05-07 15:06 59.29815 11.53329 2445 ft 88 kts 272°
2026-05-07 15:07 59.29836 11.52122 2443 ft 89 kts 276°
2026-05-07 15:07 59.29891 11.50852 2449 ft 98 kts 277°
2026-05-07 15:07 59.29952 11.49483 2461 ft 107 kts 277°
2026-05-07 15:07 59.30045 11.48013 2458 ft 107 kts 286°
2026-05-07 15:08 59.30357 11.46681 2447 ft 109 kts 297°
2026-05-07 15:08 59.30787 11.45471 2461 ft 109 kts 311°
2026-05-07 15:08 59.31329 11.44370 2454 ft 115 kts 314°
2026-05-07 15:08 59.31886 11.43247 2449 ft 113 kts 315°
2026-05-07 15:09 59.32459 11.42172 2382 ft 117 kts 315°
2026-05-07 15:09 59.33049 11.41037 2288 ft 121 kts 317°
2026-05-07 15:09 59.33743 11.40083 2192 ft 121 kts 329°
2026-05-07 15:09 59.34472 11.39387 2096 ft 111 kts 334°
2026-05-07 15:10 59.35111 11.38766 1994 ft 97 kts 330°
2026-05-07 15:10 59.35726 11.38217 1795 ft 99 kts 338°
2026-05-07 15:10 59.36287 11.37933 1704 ft 76 kts 346°
2026-05-07 15:10 59.36817 11.37787 1444 ft 77 kts 341°
2026-05-07 15:11 59.37283 11.37325 1112 ft 74 kts 327°
2026-05-07 15:11 59.37735 11.36822 890 ft 73 kts 325°
2026-05-07 15:11 59.38178 11.36364 747 ft 71 kts 328°
2026-05-07 15:11 59.38626 11.35895 598 ft 73 kts 329°
2026-05-07 15:12 59.39046 11.35421 477 ft 72 kts 328°
2026-05-07 15:12 59.39466 11.35000 392 ft 61 kts 326°
2026-05-07 15:12 59.39831 11.34577 434 ft 68 kts 329°
2026-05-07 15:12 59.40288 11.34091 563 ft 83 kts 334°
2026-05-07 15:13 59.40861 11.33580 740 ft 99 kts 336°
2026-05-07 15:13 59.41516 11.32989 1037 ft 110 kts 338°
2026-05-07 15:13 59.42283 11.32493 1248 ft 120 kts 344°
2026-05-07 15:13 59.43136 11.32198 1434 ft 133 kts
2026-05-07 15:14 59.43889 11.33311 1464 ft 151 kts 67°
2026-05-07 15:14 59.44173 11.35356 1456 ft 159 kts 77°
2026-05-07 15:14 59.44451 11.37478 1455 ft 157 kts 75°
2026-05-07 15:14 59.44557 11.39454 1443 ft 140 kts 108°
2026-05-07 15:15 59.43917 11.40699 1446 ft 129 kts 154°
2026-05-07 15:15 59.43140 11.41568 1442 ft 128 kts 152°
2026-05-07 15:15 59.42377 11.42444 1445 ft 126 kts 152°
2026-05-07 15:15 59.41623 11.43299 1443 ft 125 kts 153°
2026-05-07 15:16 59.40881 11.44138 1443 ft 125 kts 152°
2026-05-07 15:16 59.40120 11.45006 1432 ft 125 kts 152°
2026-05-07 15:16 59.39375 11.45850 1437 ft 125 kts 153°
2026-05-07 15:16 59.38619 11.46717 1437 ft 126 kts 152°
2026-05-07 15:17 59.37867 11.47584 1434 ft 124 kts 153°
2026-05-07 15:17 59.37132 11.48464 1384 ft 122 kts 153°
2026-05-07 15:17 59.36430 11.49328 1290 ft 117 kts 151°
2026-05-07 15:17 59.35702 11.49888 1189 ft 112 kts 192°
2026-05-07 15:18 59.35133 11.49038 1153 ft 101 kts 234°
2026-05-07 15:18 59.34710 11.47960 1146 ft 98 kts 240°
2026-05-07 15:18 59.34370 11.46822 1144 ft 96 kts 246°
2026-05-07 15:18 59.34064 11.45695 1132 ft 93 kts 260°
2026-05-07 15:19 59.34146 11.44553 1147 ft 78 kts 280°
2026-05-07 15:19 59.34225 11.43526 1137 ft 76 kts 280°
2026-05-07 15:19 59.34393 11.42574 1079 ft 75 kts 311°
2026-05-07 15:19 59.34750 11.41809 1030 ft 77 kts 310°
2026-05-07 15:20 59.35114 11.40995 985 ft 81 kts 310°
2026-05-07 15:20 59.35525 11.40253 958 ft 81 kts 322°
2026-05-07 15:20 59.35966 11.39608 960 ft 75 kts 319°
2026-05-07 15:20 59.36351 11.39014 949 ft 68 kts 318°
2026-05-07 15:21 59.36737 11.38505 939 ft 67 kts 329°
2026-05-07 15:21 59.37145 11.38087 942 ft 67 kts 335°
2026-05-07 15:21 59.37580 11.37730 946 ft 69 kts 334°
2026-05-07 15:21 59.38020 11.37348 937 ft 69 kts 327°
2026-05-07 15:22 59.38229 11.36872 841 ft 72 kts 297°
2026-05-07 15:22 59.38499 11.36050 816 ft 74 kts 303°
2026-05-07 15:22 59.39143 11.35439 793 ft 84 kts
2026-05-07 15:22 59.39697 11.35509 876 ft 78 kts 358°
2026-05-07 15:23 59.40247 11.35428 1000 ft 83 kts 351°
2026-05-07 15:23 59.40805 11.35227 1123 ft 83 kts 345°
2026-05-07 15:23 59.41184 11.35062 1187 ft 84 kts 345°
2026-05-07 15:23 59.41740 11.34713 1340 ft 81 kts 336°
2026-05-07 15:24 59.42153 11.33949 1330 ft 90 kts 295°
2026-05-07 15:24 59.42168 11.32696 1225 ft 93 kts 255°
2026-05-07 15:24 59.41670 11.32172 1040 ft 94 kts 162°
2026-05-07 15:24 59.41167 11.33038 730 ft 95 kts 142°
2026-05-07 15:25 59.40642 11.33721 490 ft 86 kts 156°
2026-05-07 15:25 59.40004 11.34409 350 ft 70 kts 155°
2026-05-07 15:25 59.39749 11.34686 368 ft 52 kts 153°
2026-05-07 15:25 59.39556 11.34901 377 ft 26 kts 151°
2026-05-07 15:26 59.39537 11.34912 379 ft 11 kts 331°
2026-05-07 15:26 59.39653 11.34780 372 ft 14 kts 334°
2026-05-07 15:26 59.39764 11.34663 367 ft 25 kts 330°
2026-05-07 15:26 59.39813 11.34610 365 ft 0 kts 326°
2026-05-07 15:27 59.39828 11.34590 366 ft 4 kts 323°
2026-05-07 15:27 59.39824 11.34539 364 ft 4 kts 226°
2026-05-07 15:27 59.39813 11.34497 361 ft 3 kts 304°
2026-05-07 15:27 59.39815 11.34493 361 ft 0 kts 326°